W7DBO-13 Weather Reports


Display with metric or nautical units.
time (UTC)temp
F
wind
direction
speed
MPH
gust
MPH
rain 1hr
in
rain 24hr
in
rain mn
in
humidity
%
barometer
mb
20260505035018 60 167 8.0 11.0 0.00 0.00 0.00 60 1010.0
20260505034015 61 158 7.0 11.0 0.00 0.00 0.00 58 1009.9
20260505033033 61 155 2.0 5.0 0.00 0.00 0.00 57 1009.9
20260505032019 61 169 4.0 6.0 0.00 0.00 0.00 56 1009.6
20260505031023 62 167 5.0 8.0 0.00 0.00 0.00 57 1009.3
20260505030027 62 173 5.0 8.0 0.00 0.00 0.00 57 1009.2
20260505025032 62 147 5.0 7.0 0.00 0.00 0.00 56 1009.1
20260505024019 63 191 3.0 4.0 0.00 0.00 0.00 50 1008.9
20260505023024 63 133 4.0 5.0 0.00 0.00 0.00 46 1008.9
20260505022029 63 142 5.0 7.0 0.00 0.00 0.00 43 1008.9
20260505021057 64 133 5.0 7.0 0.00 0.00 0.00 40 1008.7
20260505020020 64 121 8.0 9.0 0.00 0.00 0.00 40 1008.9
20260505015045 65 103 7.0 10.0 0.00 0.00 0.00 39 1008.7
20260505014030 66 128 6.0 8.0 0.00 0.00 0.00 37 1008.8
20260505013017 67 129 7.0 8.0 0.00 0.00 0.00 37 1008.9
20260505012021 66 128 8.0 9.0 0.00 0.00 0.00 38 1009.0
20260505011025 67 107 8.0 11.0 0.00 0.00 0.00 38 1009.0
20260505010030 68 114 8.0 12.0 0.00 0.00 0.00 40 1008.9
20260505005018 71 145 8.0 9.0 0.00 0.00 0.00 36 1008.7
20260505004022 74 136 4.0 5.0 0.00 0.00 0.00 27 1008.7
20260505003025 74 159 4.0 6.0 0.00 0.00 0.00 27 1008.7
20260505002030 72 135 4.0 7.0 0.00 0.00 0.00 28 1008.9
20260505001017 70 167 7.0 11.0 0.00 0.00 0.00 31 1009.0
20260505000021 71 174 3.0 5.0 0.00 0.00 0.00 29 1008.9
20260504235026 72 246 2.0 4.0 0.00 0.00 0.00 27 1008.9
20260504234051 72 285 2.0 3.0 0.00 0.00 0.00 28 1008.8
20260504233020 73 258 4.0 7.0 0.00 0.00 0.00 27 1008.7
20260504232023 73 301 1.0 3.0 0.00 0.00 0.00 27 1008.6
20260504231108 74 247 4.0 7.0 0.00 0.00 0.00 28 1008.6
20260504230054 74 64 7.0 10.0 0.00 0.00 0.00 28 1008.6
20260504225039 75 69 6.0 8.0 0.00 0.00 0.00 28 1008.6
20260504224023 78 62 8.0 13.0 0.00 0.00 0.00 25 1008.7
20260504223028 81 28 3.0 7.0 0.00 0.00 0.00 23 1008.7
20260504222033 82 243 4.0 7.0 0.00 0.00 0.00 23 1008.9
20260504221019 80 213 3.0 5.0 0.00 0.00 0.00 24 1008.7
20260504220024 77 260 6.0 8.0 0.00 0.00 0.00 25 1008.9
20260504215028 78 268 5.0 9.0 0.00 0.00 0.00 25 1009.0
20260504214015 76 267 9.0 12.0 0.00 0.00 0.00 27 1009.1
20260504213020 77 249 7.0 11.0 0.00 0.00 0.00 27 1009.1
20260504212025 79 244 6.0 9.0 0.00 0.00 0.00 30 1009.2
20260504211025 77 178 5.0 7.0 0.00 0.00 0.00 29 1009.3
20260504210018 76 144 5.0 8.0 0.00 0.00 0.00 35 1009.4
20260504205041 75 146 6.0 8.0 0.00 0.00 0.00 34 1009.4
20260504204020 75 137 6.0 8.0 0.00 0.00 0.00 32 1009.5
20260504203018 75 157 5.0 9.0 0.00 0.00 0.00 34 1009.6
20260504202017 76 134 7.0 8.0 0.00 0.00 0.00 34 1009.6
20260504201016 78 151 7.0 9.0 0.00 0.00 0.00 28 1009.6
20260504200026 80 156 6.0 9.0 0.00 0.00 0.00 26 1009.9
20260504195051 79 147 7.0 9.0 0.00 0.00 0.00 28 1010.0
20260504194018 79 141 7.0 9.0 0.00 0.00 0.00 27 1010.1
20260504193022 78 167 7.0 9.0 0.00 0.00 0.00 28 1010.2
20260504192027 78 143 7.0 10.0 0.00 0.00 0.00 28 1010.2
20260504191037 77 149 7.0 10.0 0.00 0.00 0.00 28 1010.4
20260504190018 78 146 6.0 8.0 0.00 0.00 0.00 28 1010.4
20260504185023 77 134 7.0 9.0 0.00 0.00 0.00 30 1010.8
20260504184048 76 120 8.0 10.0 0.00 0.00 0.00 29 1010.8
20260504183033 76 133 8.0 10.0 0.00 0.00 0.00 29 1010.8
20260504182019 75 113 8.0 11.0 0.00 0.00 0.00 29 1011.0
20260504181024 76 129 8.0 10.0 0.00 0.00 0.00 29 1011.1
20260504180030 76 131 7.0 9.0 0.00 0.00 0.00 28 1011.4
20260504175015 76 145 6.0 9.0 0.00 0.00 0.00 29 1011.5
20260504174020 75 113 8.0 10.0 0.00 0.00 0.00 29 1011.6
20260504173024 75 140 7.0 9.0 0.00 0.00 0.00 30 1011.7
20260504172029 76 138 5.0 7.0 0.00 0.00 0.00 32 1011.9
20260504171015 76 145 4.0 6.0 0.00 0.00 0.00 33 1011.9
20260504151018 68 118 4.0 6.0 0.00 0.00 0.00 42 1012.4
20260504141048 62 123 4.0 5.0 0.00 0.00 0.00 55 1012.4
20260504081018 57 95 5.0 7.0 0.00 0.00 0.00 47 1012.1
20260504050017 57 0.0 0.0 0.00 0.00 0.00 37 1011.6
20260504045020 58 270 0.0 1.0 0.00 0.00 0.00 36 1011.6
20260504044045 59 296 1.0 2.0 0.00 0.00 0.00 35 1011.6
20260504043029 59 0.0 0.0 0.00 0.00 0.00 33 1011.7
20260504042016 60 0.0 0.0 0.00 0.00 0.00 32 1011.7
20260504041020 61 0.0 0.0 0.00 0.00 0.00 29 1011.7
20260504040025 62 0.0 0.0 0.00 0.00 0.00 29 1011.7